This is the latest recevied weather packets stored in our database for station/object SV9TNF-1. If no packets are shown the sender has not sent any weather packets the latest 10 day(s).
| Time | Temp. | Humidity | Pressure | Rain* | Wind** | Luminosity | Snow |
|---|---|---|---|---|---|---|---|
| 1777865113 | 11.11° C | 73% | 1006.4 hPa | 0 mm | 2.68 m/s, 253° | - | - |
| 1777864813 | 11.11° C | 72% | 1006.4 hPa | 0 mm | 6.26 m/s, 229° | - | - |
| 1777864513 | 11.11° C | 73% | 1006.4 hPa | 0 mm | 2.68 m/s, 138° | - | - |
| 1777864213 | 11.11° C | 72% | 1006.4 hPa | 0 mm | 3.58 m/s, 162° | - | - |
| 1777863912 | 11.11° C | 72% | 1006.4 hPa | 0 mm | 3.13 m/s, 325° | - | - |
| 1777863612 | 11.11° C | 72% | 1006.4 hPa | 0 mm | 4.47 m/s, 336° | - | - |
| 1777863312 | 11.11° C | 72% | 1006.4 hPa | 0 mm | 4.02 m/s, 290° | - | - |
| 1777863012 | 11.11° C | 70% | 1006.4 hPa | 0 mm | 2.24 m/s, 194° | - | - |
| 1777862712 | 11.11° C | 71% | 1006.1 hPa | 0 mm | 4.02 m/s, 337° | - | - |
| 1777862412 | 11.67° C | 69% | 1006.1 hPa | 0 mm | 2.68 m/s, 326° | - | - |
| 1777862112 | 11.67° C | 69% | 1006.4 hPa | 0 mm | 1.79 m/s, 153° | - | - |
| 1777861812 | 11.67° C | 69% | 1006.4 hPa | 0 mm | 3.13 m/s, 180° | - | - |
| 1777861512 | 11.67° C | 68% | 1006.4 hPa | 0 mm | 3.13 m/s, 328° | - | - |
| 1777861211 | 11.11° C | 70% | 1006.4 hPa | 0 mm | 2.24 m/s, 106° | - | - |
| 1777860911 | 11.11° C | 69% | 1006.4 hPa | 0 mm | 2.24 m/s, 145° | - | - |
| 1777860611 | 11.11° C | 70% | 1006.4 hPa | 0 mm | 2.68 m/s, 329° | - | - |
| 1777860311 | 11.11° C | 70% | 1006.4 hPa | 0 mm | 3.13 m/s, 284° | - | - |
| 1777860011 | 11.11° C | 70% | 1006.4 hPa | 0 mm | 3.13 m/s, 353° | - | - |
| 1777859711 | 11.11° C | 71% | 1006.4 hPa | 0 mm | 4.47 m/s, 330° | - | - |
| 1777859411 | 11.11° C | 71% | 1006.4 hPa | 0 mm | 3.13 m/s, 194° | - | - |
| 1777859111 | 11.67° C | 70% | 1006.4 hPa | 0 mm | 1.79 m/s, 169° | - | - |
| 1777858811 | 11.67° C | 68% | 1006.4 hPa | 0 mm | 1.34 m/s, 148° | - | - |
| 1777858511 | 11.67° C | 67% | 1006.4 hPa | 0 mm | 3.58 m/s, 332° | - | - |
| 1777858210 | 11.67° C | 69% | 1006.4 hPa | 0 mm | 3.13 m/s, 172° | - | - |
| 1777857910 | 11.67° C | 68% | 1006.4 hPa | 0 mm | 2.68 m/s, 157° | - | - |
* Rain latest hour (hover to see other rain measurements)
** Current wind speed in m/s (hover to see current wind gust speed)